National Weather Service United States Department of Commerce


722
ASUS42 KCAE 282310
RWRCAE
REGIONAL WEATHER ROUNDUP
NATIONAL WEATHER SERVICE COLUMBIA SC
600 PM EST FRI FEB 28 2020

NOTE: "FAIR" INDICATES FEW OR NO CLOUDS BELOW 12,000 FEET WITH NO
SIGNIFICANT WEATHER AND/OR OBSTRUCTIONS TO VISIBILITY.

NOT ALL STATIONS ARE QUALITY CONTROLLED BY THE NATIONAL
WEATHER SERVICE. USE DATA WITH CAUTION...ESPECIALLY
DEWPOINT OBSERVATIONS.

SCZ001>056-GAZ040-063>065-077-290000-
...UPSTATE SOUTH CAROLINA...

CITY SKY/WX TMP DP RH WIND PRES REMARKS
ANDERSON MOCLDY 46 30 53 W13 30.06R
LIBERTY FAIR 42 30 61 W8G24 30.04R
SPARTANBURG FAIR 45 28 53 W16G24 30.01R
CLEMSON FAIR 44 28 53 NW14G22 30.07R
GREENVILLE FAIR 46 29 51 W15G26 30.03R
GREENWOOD CLOUDY 47 31 53 W7G17 30.06R
GREER FAIR 45 28 51 W14 30.02R
ROCK HILL FAIR 47 28 47 SW16G24 29.99R
CHESTER FAIR 45 30 57 SW5 30.01R HAZE
LAURENS MOCLDY 46 32 57 W13G30 30.04R


...CENTRAL SOUTH CAROLINA...

CITY SKY/WX TMP DP RH WIND PRES REMARKS
COLUMBIA APT CLOUDY 54 27 35 W21G26 30.03R
COLUMBIA OWENS CLOUDY 54 27 35 W10G21 30.04R
MCENTIRE ANGB PTCLDY 54 27 35 W14 30.03R
ORANGEBURG CLOUDY 54 26 34 W18G29 30.05R
SUMTER SHAW MOCLDY 54 27 35 W18 30.02R
NEWBERRY CLOUDY 48 32 53 W14 30.07R
AIKEN CLOUDY 52 28 40 W20 30.06S
BARNWELL MOCLDY 55 28 35 W7 30.06R
MANNING FAIR 54 28 37 W3 30.04R
CAMDEN FAIR 52 28 40 W13 30.02R
LANCASTER FAIR 48 30 49 SW15G23 30.00R
WINNSBORO FAIR 50 30 46 W10G23 30.02R


...EASTERN AND COASTAL SOUTH CAROLINA...

CITY SKY/WX TMP DP RH WIND PRES REMARKS
MYRTLE BEACH FAIR 54 26 34 W12 30.03R
N MYRTLE BCH MOCLDY 55 27 34 W9 30.01S
CONWAY FAIR 54 28 37 SW6 30.02S
MARION CLOUDY 52 28 40 W7 30.00S
HARTSVILLE CLOUDY 52 28 40 W8G15 30.00R
FLORENCE MOCLDY 55 25 31 W15 30.01R
DARLINGTON CLOUDY 52 30 43 W9 30.00R
CHARLESTON APT FAIR 55 24 30 W13 30.05S
MOUNT PLEASANT FAIR 55 23 28 W9G17 30.06R
WALTERBORO FAIR 54 28 37 W8 30.07R
BEAUFORT FAIR 56 25 30 W13G18 30.08R
HILTON HEAD CLEAR 57 21 24 W13 30.10R


...EASTERN GEORGIA...

CITY SKY/WX TMP DP RH WIND PRES REMARKS
AUGUSTA BUSH F CLOUDY 56 29 35 N7 30.05R
AUGUSTA DANIEL CLOUDY 54 30 40 NW9 30.06R
THOMSON CLOUDY 52 32 47 N7 30.07R
WASHINGTON FAIR 50 32 50 W12G21 30.07R
CLAXTON FAIR 58 28 30 W9 30.10R
SYLVANIA MOCLDY 58 28 32 W12G22 30.08S
STATESBORO FAIR 56 26 31 W7 30.08S
SAVANNAH FAIR 58 25 28 SW13 30.10R


...SOUTHERN NORTH CAROLINA...

CITY SKY/WX TMP DP RH WIND PRES REMARKS
CHARLOTTE LGT RAIN 45 34 65 W10G20 29.99R
MONROE MOCLDY 47 30 51 W21G29 29.97R
WADESBORO FAIR 49 28 43 SW7 29.98S
ROCKINGHAM FAIR 50 19 29 W14G23 29.98S
RUTHERFORDTON MOCLDY 43 28 56 NW12G17 30.01R
ASHEVILLE MOCLDY 38 29 70 N9 29.99R WCI 31

$$